SCP
1 1 0 -0 -0 -0 -0 0 0 0 0 0 0 0 0 0 0 0 0 0 0 0 0 0 0 0 0 0 0 0 0 0
0 0 1 1 0 -0 -0 -0 -0 1 0 0 0 0 0 0 0 0 0 0 0 0 0 0 0 0 0 0 0 0 0 0
0 0 0 1 1 -0 -0 -0 -0 0 0 0 1 0 0 1 1 1 0 0 0 0 0 0 0 0 0 0 0 0 0 0
0 0 0 2 2 -1 -1 -1 -0 0 0 1 1 1 1 1 0 0 1 1 1 0 0 0 0 0 0 0 0 0 0 0
0 0 0 2 2 1 -0 -1 -0 1 1 1 1 1 1 1 1 1 1 1 1 1 1 0 0 0 0 0 0 0 0 0
0 0 0 0 2 2 1 0 0 1 1 1 1 1 1 2 2 1 1 1 1 1 1 0 0 0 0 0 0 0 0 0
0 0 0 0 2 2 2 1 1 1 1 1 1 1 1 2 2 1 1 1 1 1 0 0 0 0 0 0 0 0 0 0
0 0 0 0 0 2 3 2 2 2 2 2 1 1 2 1 2 2 1 1 2 1 1 0 0 0 0 0 0 0 0 0
0 0 0 0 0 2 4 3 2 2 3 2 2 1 3 3 2 2 1 1 2 1 1 1 0 0 0 0 0 0 0 0
0 0 0 0 0 1 4 3 3 3 2 3 2 2 2 2 1 1 1 1 2 1 1 1 0 0 0 0 0 0 0 0
0 0 0 0 0 0 2 3 3 3 1 3 4 3 2 2 2 1 1 1 1 1 1 1 0 0 0 0 0 0 0 0
0 0 0 0 0 0 2 3 4 5 4 4 5 4 3 2 2 1 1 1 1 1 1 1 1 0 0 0 0 0 0 0
0 0 0 0 0 0 0 1 4 4 2 2 5 4 4 3 2 2 1 1 1 1 1 1 1 0 0 0 0 0 0 0
-0 -0 0 0 0 0 0 0 0 3 4 4 6 5 4 3 3 2 1 1 1 1 1 1 0 0 0 0 0 0 0 0
0 0 -0 -0 0 0 0 0 0 0 2 6 7 6 5 4 3 2 1 1 1 1 1 0 0 0 0 0 0 0 0 0
0 0 0 1 0 0 0 0 0 0 0 7 8 6 5 5 3 1 1 1 1 0 0 0 0 0 0 0 0 0 0 0
0 0 0 1 1 0 0 0 0 0 0 2 6 5 5 3 1 0 0 0 0 0 0 0 0 0 0 0 0 0 0 0
0 0 0 0 0 0 0 0 0 0 0 0 0 1 2 1 0 0 0 0 0 0 0 0 0 0 0 0 0 0 0 0
0 0 0 0 0 0 0 0 0 0 0 0 0 0 0 0 0 0 0 0 0 0 0 0 0 0 0 0 0 0 0 0
Wind_Speed_500mb
98 93 83 79 76 77 76 74 73 70 74 82 83 79 75 76 77 74 65 64 61 65 56 47 43 44 40 35 33 35 33 32
98 100 103 94 92 93 93 88 81 79 79 82 87 91 83 79 77 77 69 66 63 69 63 55 55 54 52 50 47 47 43 36
74 103 105 110 109 104 105 99 89 87 83 83 86 86 86 80 79 76 73 67 66 67 68 64 61 60 58 60 58 49 44 41
84 83 108 111 118 116 113 111 101 91 88 89 85 85 83 85 86 81 80 76 70 69 70 72 68 64 63 61 61 53 53 49
94 92 94 107 110 118 115 113 111 101 95 97 97 95 101 102 96 88 87 83 79 76 74 77 78 73 68 63 60 61 57 56
95 96 101 105 107 117 124 117 117 112 106 102 100 100 94 96 101 101 97 94 89 86 82 85 89 85 76 68 64 63 61 57
93 95 90 104 112 113 127 126 124 121 117 112 107 100 100 102 99 102 102 103 97 92 90 90 93 93 85 75 68 64 65 61
108 99 94 97 109 120 130 133 131 129 126 122 115 106 103 97 98 99 100 102 102 99 93 92 90 93 89 80 72 68 67 62
96 89 76 76 101 114 128 132 138 135 134 129 120 111 109 102 97 96 97 96 96 96 93 92 89 88 90 86 78 72 66 64
95 93 92 92 88 106 123 130 134 139 136 134 125 119 118 110 99 93 91 92 90 93 93 92 91 88 88 90 84 77 74 71
81 74 89 98 104 102 122 129 124 135 139 137 131 128 124 117 107 98 93 91 89 91 90 91 92 90 87 90 89 81 80 78
68 73 64 56 94 100 118 124 126 134 141 141 136 133 126 120 113 104 98 94 90 88 89 91 94 93 88 89 93 84 86 81
88 88 81 72 67 88 106 115 125 134 137 138 140 131 125 120 115 109 96 94 90 87 88 93 96 94 91 93 94 91 93 81
95 88 97 103 86 85 89 110 128 130 129 128 131 134 124 117 113 105 99 97 94 94 98 102 99 97 97 96 93 94 84 73
55 76 69 82 86 93 87 97 108 116 120 117 118 125 129 121 112 106 100 98 98 100 106 105 99 90 93 97 96 84 79 75
60 9 25 38 59 71 70 69 75 90 105 106 106 104 115 119 115 104 97 102 100 103 105 102 92 85 93 96 97 82 79 75
65 68 13 9 23 40 50 59 63 67 74 80 87 97 104 110 103 99 97 98 100 102 100 97 89 95 101 91 83 84 79 77
66 66 51 7 5 13 25 35 43 48 51 59 71 82 88 91 88 89 93 95 94 96 96 94 93 89 99 89 87 88 83 78
60 66 61 51 4 9 17 20 23 27 34 38 45 57 69 78 80 83 84 87 91 100 97 91 81 92 88 91 93 79 74 77
Wind_Direction_500mb
206 206 210 214 216 219 219 218 210 210 213 216 218 218 220 223 224 222 219 218 216 215 216 210 216 217 215 215 220 216 227 241
217 211 208 212 219 217 219 218 216 203 211 210 215 218 218 222 224 223 215 214 213 212 216 210 215 218 218 219 221 227 226 231
226 219 211 210 218 220 219 219 221 212 209 218 215 216 220 222 225 222 220 215 215 215 219 218 218 218 219 222 224 223 220 228
239 229 214 214 214 220 219 219 219 220 216 211 214 213 220 222 224 224 223 222 222 223 223 225 225 225 222 222 227 225 219 224
240 240 223 211 214 217 220 220 220 219 217 212 212 217 218 222 224 223 227 227 226 227 231 232 230 230 227 225 227 228 223 225
238 238 236 221 217 214 219 219 220 218 218 219 216 217 225 225 221 225 225 228 230 232 234 233 233 232 230 227 225 224 226 227
233 234 234 229 218 216 218 217 220 219 218 220 221 221 220 220 224 227 228 229 228 229 232 231 230 230 230 226 225 225 225 227
234 226 226 226 222 216 217 217 218 218 219 219 223 224 221 224 227 229 231 230 229 229 226 224 224 224 228 226 223 222 223 226
225 221 222 231 229 221 217 218 219 220 220 221 223 226 224 225 228 231 233 235 237 234 227 224 222 221 222 224 224 223 223 226
227 232 237 237 236 232 224 221 221 223 224 223 223 226 224 225 229 232 237 239 236 236 234 227 223 223 222 222 222 222 225 227
239 241 242 245 243 240 229 224 225 225 225 224 225 225 227 227 227 230 234 238 235 235 235 231 228 225 225 223 222 223 225 225
248 244 252 248 241 237 226 220 221 222 224 223 223 225 225 225 226 229 232 234 234 234 235 233 231 228 227 224 222 222 226 227
255 254 255 251 241 237 229 224 221 222 224 222 220 226 224 224 226 227 228 232 235 236 235 233 231 230 229 224 224 223 227 225
260 254 251 254 259 249 236 230 226 223 220 220 219 220 223 225 226 227 228 229 233 234 234 233 230 230 225 222 224 226 226 222
264 254 255 252 249 237 224 224 227 223 222 220 217 219 224 228 229 227 227 228 231 233 232 230 230 229 222 221 222 221 222 217
10 125 180 201 208 206 205 211 217 220 220 214 211 219 222 225 225 226 224 227 230 232 227 229 231 231 225 227 222 214 218 216
355 22 28 89 151 180 191 200 205 212 215 214 215 216 220 224 225 226 226 230 229 231 232 231 230 224 222 225 226 214 230 213
349 354 15 341 115 154 175 177 188 197 206 209 211 213 217 223 224 226 228 227 227 230 232 231 230 230 223 224 224 215 209 210
342 347 353 8 230 146 180 180 180 188 199 212 214 213 215 219 223 222 223 228 232 230 228 228 229 225 227 221 211 213 212 210
Wind_Speed_850mb
98 93 83 79 76 77 76 74 73 70 74 82 83 79 75 76 77 74 65 64 61 65 56 47 43 44 40 35 33 35 33 32
98 100 103 94 92 93 93 88 81 79 79 82 87 91 83 79 77 77 69 66 63 69 63 55 55 54 52 50 47 47 43 36
74 103 105 110 109 104 105 99 89 87 83 83 86 86 86 80 79 76 73 67 66 67 68 64 61 60 58 60 58 49 44 41
84 83 108 111 118 116 113 111 101 91 88 89 85 85 83 85 86 81 80 76 70 69 70 72 68 64 63 61 61 53 53 49
94 92 94 107 110 118 115 113 111 101 95 97 97 95 101 102 96 88 87 83 79 76 74 77 78 73 68 63 60 61 57 56
95 96 101 105 107 117 124 117 117 112 106 102 100 100 94 96 101 101 97 94 89 86 82 85 89 85 76 68 64 63 61 57
93 95 90 104 112 113 127 126 124 121 117 112 107 100 100 102 99 102 102 103 97 92 90 90 93 93 85 75 68 64 65 61
108 99 94 97 109 120 130 133 131 129 126 122 115 106 103 97 98 99 100 102 102 99 93 92 90 93 89 80 72 68 67 62
96 89 76 76 101 114 128 132 138 135 134 129 120 111 109 102 97 96 97 96 96 96 93 92 89 88 90 86 78 72 66 64
95 93 92 92 88 106 123 130 134 139 136 134 125 119 118 110 99 93 91 92 90 93 93 92 91 88 88 90 84 77 74 71
81 74 89 98 104 102 122 129 124 135 139 137 131 128 124 117 107 98 93 91 89 91 90 91 92 90 87 90 89 81 80 78
68 73 64 56 94 100 118 124 126 134 141 141 136 133 126 120 113 104 98 94 90 88 89 91 94 93 88 89 93 84 86 81
88 88 81 72 67 88 106 115 125 134 137 138 140 131 125 120 115 109 96 94 90 87 88 93 96 94 91 93 94 91 93 81
95 88 97 103 86 85 89 110 128 130 129 128 131 134 124 117 113 105 99 97 94 94 98 102 99 97 97 96 93 94 84 73
55 76 69 82 86 93 87 97 108 116 120 117 118 125 129 121 112 106 100 98 98 100 106 105 99 90 93 97 96 84 79 75
60 9 25 38 59 71 70 69 75 90 105 106 106 104 115 119 115 104 97 102 100 103 105 102 92 85 93 96 97 82 79 75
65 68 13 9 23 40 50 59 63 67 74 80 87 97 104 110 103 99 97 98 100 102 100 97 89 95 101 91 83 84 79 77
66 66 51 7 5 13 25 35 43 48 51 59 71 82 88 91 88 89 93 95 94 96 96 94 93 89 99 89 87 88 83 78
60 66 61 51 4 9 17 20 23 27 34 38 45 57 69 78 80 83 84 87 91 100 97 91 81 92 88 91 93 79 74 77
Wind_Direction_850mb
206 206 210 214 216 219 219 218 210 210 213 216 218 218 220 223 224 222 219 218 216 215 216 210 216 217 215 215 220 216 227 241
217 211 208 212 219 217 219 218 216 203 211 210 215 218 218 222 224 223 215 214 213 212 216 210 215 218 218 219 221 227 226 231
226 219 211 210 218 220 219 219 221 212 209 218 215 216 220 222 225 222 220 215 215 215 219 218 218 218 219 222 224 223 220 228
239 229 214 214 214 220 219 219 219 220 216 211 214 213 220 222 224 224 223 222 222 223 223 225 225 225 222 222 227 225 219 224
240 240 223 211 214 217 220 220 220 219 217 212 212 217 218 222 224 223 227 227 226 227 231 232 230 230 227 225 227 228 223 225
238 238 236 221 217 214 219 219 220 218 218 219 216 217 225 225 221 225 225 228 230 232 234 233 233 232 230 227 225 224 226 227
233 234 234 229 218 216 218 217 220 219 218 220 221 221 220 220 224 227 228 229 228 229 232 231 230 230 230 226 225 225 225 227
234 226 226 226 222 216 217 217 218 218 219 219 223 224 221 224 227 229 231 230 229 229 226 224 224 224 228 226 223 222 223 226
225 221 222 231 229 221 217 218 219 220 220 221 223 226 224 225 228 231 233 235 237 234 227 224 222 221 222 224 224 223 223 226
227 232 237 237 236 232 224 221 221 223 224 223 223 226 224 225 229 232 237 239 236 236 234 227 223 223 222 222 222 222 225 227
239 241 242 245 243 240 229 224 225 225 225 224 225 225 227 227 227 230 234 238 235 235 235 231 228 225 225 223 222 223 225 225
248 244 252 248 241 237 226 220 221 222 224 223 223 225 225 225 226 229 232 234 234 234 235 233 231 228 227 224 222 222 226 227
255 254 255 251 241 237 229 224 221 222 224 222 220 226 224 224 226 227 228 232 235 236 235 233 231 230 229 224 224 223 227 225
260 254 251 254 259 249 236 230 226 223 220 220 219 220 223 225 226 227 228 229 233 234 234 233 230 230 225 222 224 226 226 222
264 254 255 252 249 237 224 224 227 223 222 220 217 219 224 228 229 227 227 228 231 233 232 230 230 229 222 221 222 221 222 217
10 125 180 201 208 206 205 211 217 220 220 214 211 219 222 225 225 226 224 227 230 232 227 229 231 231 225 227 222 214 218 216
355 22 28 89 151 180 191 200 205 212 215 214 215 216 220 224 225 226 226 230 229 231 232 231 230 224 222 225 226 214 230 213
349 354 15 341 115 154 175 177 188 197 206 209 211 213 217 223 224 226 228 227 227 230 232 231 230 230 223 224 224 215 209 210
342 347 353 8 230 146 180 180 180 188 199 212 214 213 215 219 223 222 223 228 232 230 228 228 229 225 227 221 211 213 212 210